Location: Cruquius
(52.3348°N, 4.6319°E)
Time: 04:26:50
(UTC+00:00)

NOSS 3-3 (A) - Pass Details

Date: 12 May 2021
Orbit: 810 x 1402 km, 63.4° (Epoch: 06 June)

Event Time Altitude Azimuth Distance (km) Brightness Sun altitude
Rises 20:36:47 0° 217° (SW) 3,412 6.8 -9.1°
Reaches altitude 10° 20:39:08 10° 216° (SW) 2,527 6.1 -9.4°
Maximum altitude 20:44:58 76° 132° (SE) 988 3.9 -10.0°
Drops below altitude 10° 20:51:43 10° 47° (NE) 2,905 6.5 -10.7°
Sets 20:54:34 0° 47° (NE) 3,957 7.2 -10.9°
